Miscellaneous Local Product
Issued by NWS Hastings, NE

Home | Current Version | Previous Version | Text Only | Print | Product List | Glossary Off
Versions: 1 2 3 4 5 6 7 8 9 10 11 12 13 14 15 16 17 18 19 20 21 22 23 24 25 26 27 28 29 30 31 32 33 34 35 36 37 38 39 40 41 42 43 44 45 46 47 48 49 50

990
AXUS43 KGID 230202
MISGRI

GID CWA HOURLY WEATHER ROUNDUP
NATIONAL WEATHER SERVICE HASTINGS NE
900 PM CDT WED MAR 22 2017

NOTE: "FAIR" INDICATES FEW OR NO CLOUDS BELOW 12,000 FEET WITH NO
SIGNIFICANT WEATHER AND/OR OBSTRUCTIONS TO VISIBILITY.

...SOUTH CENTRAL NEBRASKA...

CITY           SKY/WX    TMP DP  RH WIND       PRES   REMARKS
GRAND ISLAND   CLOUDY    51  24  34 SE17G23   30.07F
HASTINGS       CLOUDY    52  23  32 SE10      30.08F
KEARNEY        CLOUDY    50  23  34 SE12      30.05F
ORD            CLOUDY    50  23  34 S18G24    30.04R
YORK           CLOUDY    54  19  26 S14       30.09F
AURORA         CLOUDY    52  23  31 S10       30.08S
LEXINGTON      CLOUDY    49  27  43 SE14      30.03S
HOLDREGE       CLOUDY    50  25  38 SE15      30.04F
HEBRON         CLOUDY    53  23  31 SE16      30.11S

...NEBRASKA PANHANDLE...

CITY           SKY/WX    TMP DP  RH WIND       PRES   REMARKS
CHADRON        CLEAR     59  37  44 S24G30    29.77F
ALLIANCE       CLOUDY    52  36  54 SE16      29.84R
SCOTTSBLUFF    CLOUDY    58  35  42 E18       29.81S
SIDNEY         CLOUDY    51  36  56 S20       29.86S

...WESTERN AND NORTH CENTRAL NEBRASKA...

CITY           SKY/WX    TMP DP  RH WIND       PRES   REMARKS
VALENTINE      CLOUDY    47  30  51 S16       29.91S
AINSWORTH      CLOUDY    46  32  57 S17G23    29.95S
ONEILL         CLOUDY    51  20  29 S20       30.01S
BROKEN BOW     CLOUDY    48  27  44 S21G30    30.01S
IMPERIAL       CLOUDY    48  32  53 SE18      29.94S
NORTH PLATTE   CLOUDY    47  30  51 SE13      29.99R
MCCOOK         PTCLDY    47  32  56 SE14      30.00S

...EASTERN NEBRASKA...

CITY           SKY/WX    TMP DP  RH WIND       PRES   REMARKS
NORFOLK        CLOUDY    44  23  43 SE16      30.08F
SO SIOUX CITY  CLOUDY    42  29  59 SE15      30.16S
TEKAMAH        CLOUDY    46  24  42 SE18      30.17S
COLUMBUS       CLOUDY    48  25  40 SE15G21   30.11F
ALBION         CLOUDY    49  19  30 SE14G21   30.07S
OMAHA EPPLEY   CLOUDY    47  24  40 SE16      30.19S
OFFUTT AFB     CLOUDY    46  24  41 E20       30.18R
MILLARD        CLOUDY    48  28  44 SE13G18   30.17S
LINCOLN        CLOUDY    52  26  36 SE15      30.15S
NEBRASKA CITY  CLOUDY    48  19  31 SE14G20   30.17S
BEATRICE       CLOUDY    54  26  35 SE13      30.12F
FALLS CITY     CLOUDY    51  25  36 E15       30.17S

...NORTHERN KANSAS...

CITY           SKY/WX    TMP DP  RH WIND       PRES   REMARKS
GOODLAND       CLOUDY    50  37  61 SE14      29.93R
HILL CITY      CLOUDY    50  36  58 SE10      30.04R
NORTON         CLEAR     48  28  46 E6        30.03R
PHILLIPSBURG   CLOUDY    54  32  43 SE14      30.06S
HAYS             N/A     51  35  54 SE13      30.06S
RUSSELL        CLOUDY    51  34  52 SE12      30.05S
CONCORDIA      CLOUDY    52  29  41 SE14      30.09F
SALINA         CLOUDY    57  33  40 SE17      30.09F
TOPEKA         CLOUDY    54  31  41 E12       30.16F



USA.gov is the U.S. government's official web portal to all federal, state and local government web resources and services.